SAS936 KSFO-EKCH

Flight info

Callsign SAS936
Flight time N/A
Altitude 37000
Route SNTNA2 DEDHD DCT LKV DCT MLP J540 YQL Q896 MEETO Q959 YVC DCT 60N096W/N0496F390 64N085W 67N070W/M085F390 DCT CANEL DCT 68N050W 68N040W 67N030W 66N020W/M085F410 64N010W DCT VALDI/N0494F410 DCT RIVEX DCT TNO
Aircraft A359/H-SDE2E3GHIJ3J4J5LM1ORWXY/LB1D1

Departure

Time N/A
Airport San Francisco International Airport (KSFO)

Arrival

Time 2026-05-04 08:21
Airport Copenhagen Kastrup Airport (EKCH)
Time Latitude Longitude Altitude Speed Heading
2026-05-04 05:48 66.59049 -25.00580 38404 ft 543 kts 104°
2026-05-04 05:49 66.58130 -24.91367 38674 ft 542 kts 104°
2026-05-04 05:49 66.57209 -24.82187 38911 ft 542 kts 104°
2026-05-04 05:49 66.56294 -24.73135 39095 ft 541 kts 104°
2026-05-04 05:49 66.55360 -24.63951 39270 ft 541 kts 104°
2026-05-04 05:51 66.48692 -24.00044 40435 ft 540 kts 104°
2026-05-04 05:51 66.47717 -23.90932 40600 ft 540 kts 104°
2026-05-04 05:52 66.46754 -23.81987 40749 ft 539 kts 104°
2026-05-04 05:52 66.45771 -23.72920 40905 ft 539 kts 104°
2026-05-04 05:52 66.44786 -23.63878 41051 ft 539 kts 104°
2026-05-04 05:52 66.43794 -23.54837 41166 ft 539 kts 104°
2026-05-04 05:54 66.35662 -22.82647 41179 ft 541 kts 105°
2026-05-04 05:55 66.33579 -22.64700 41177 ft 541 kts 105°
2026-05-04 05:55 66.31483 -22.46837 41179 ft 541 kts 105°
2026-05-04 05:56 66.29396 -22.29249 41179 ft 541 kts 106°
2026-05-04 05:56 66.27245 -22.11331 41170 ft 541 kts 106°
2026-05-04 05:57 66.25071 -21.93423 41165 ft 541 kts 106°
2026-05-04 05:57 66.22877 -21.75548 41167 ft 542 kts 106°
2026-05-04 05:58 66.20661 -21.57699 41163 ft 542 kts 106°
2026-05-04 05:58 66.18422 -21.39856 41165 ft 542 kts 107°
2026-05-04 05:59 66.16165 -21.22065 41163 ft 542 kts 107°
2026-05-04 05:59 66.13888 -21.04313 41162 ft 542 kts 107°
2026-05-04 06:00 66.11591 -20.86589 41157 ft 542 kts 107°
2026-05-04 06:00 66.09284 -20.68979 41157 ft 542 kts 107°
2026-05-04 06:01 66.06941 -20.51285 41150 ft 543 kts 107°
2026-05-04 06:03 65.97203 -19.81024 41143 ft 543 kts 111°
2026-05-04 06:05 65.84782 -19.03642 41141 ft 544 kts 111°
2026-05-04 06:06 65.81990 -18.86481 41140 ft 544 kts 111°
2026-05-04 06:06 65.79176 -18.69358 41138 ft 544 kts 111°
2026-05-04 06:07 65.76345 -18.52283 41133 ft 544 kts 111°
2026-05-04 06:07 65.73974 -18.38101 41130 ft 544 kts 111°
2026-05-04 06:08 65.71102 -18.21059 41127 ft 544 kts 112°
2026-05-04 06:08 65.68213 -18.04065 41132 ft 545 kts 112°
2026-05-04 06:09 65.65301 -17.87087 41130 ft 545 kts 112°
2026-05-04 06:11 65.53494 -17.19713 41117 ft 545 kts 112°
2026-05-04 06:13 65.41370 -16.52846 41112 ft 545 kts 113°
2026-05-04 06:14 65.30527 -15.94872 41099 ft 544 kts 114°
2026-05-04 06:15 65.27390 -15.78409 41099 ft 544 kts 114°
2026-05-04 06:15 65.24256 -15.62091 41097 ft 544 kts 114°
2026-05-04 06:16 65.21088 -15.45725 41092 ft 544 kts 114°
2026-05-04 06:16 65.17896 -15.29370 41088 ft 544 kts 115°
2026-05-04 06:17 65.14688 -15.13060 41081 ft 544 kts 115°
2026-05-04 06:17 65.11461 -14.96786 41073 ft 544 kts 115°
2026-05-04 06:18 65.08215 -14.80542 41066 ft 545 kts 115°
2026-05-04 06:20 64.95135 -14.16352 41052 ft 544 kts 116°
2026-05-04 06:21 64.86786 -13.76382 41038 ft 543 kts 116°
2026-05-04 06:22 64.83420 -13.60484 41036 ft 543 kts 116°
2026-05-04 06:25 64.59442 -12.50538 41021 ft 544 kts 117°
2026-05-04 06:26 64.55935 -12.34923 41020 ft 544 kts 117°
2026-05-04 06:26 64.52416 -12.19365 41020 ft 544 kts 118°
2026-05-04 06:27 64.43548 -11.80658 41015 ft 543 kts 118°
2026-05-04 06:28 64.39975 -11.65254 41013 ft 543 kts 118°
2026-05-04 06:28 64.36386 -11.49893 41012 ft 543 kts 118°
2026-05-04 06:29 64.32806 -11.34678 41011 ft 543 kts 118°
2026-05-04 06:29 64.29186 -11.19397 41007 ft 543 kts 119°
2026-05-04 06:30 64.25553 -11.04173 41006 ft 543 kts 119°
2026-05-04 06:30 64.21909 -10.89005 41002 ft 542 kts 119°
2026-05-04 06:31 64.18244 -10.73858 41001 ft 542 kts 119°
2026-05-04 06:31 64.14563 -10.58749 41001 ft 542 kts 119°
2026-05-04 06:33 63.99708 -9.98802 40993 ft 542 kts 120°
2026-05-04 06:34 63.96198 -9.83639 40993 ft 541 kts 116°
2026-05-04 06:34 63.92879 -9.68257 40988 ft 541 kts 116°
2026-05-04 06:36 63.79191 -9.07534 40983 ft 541 kts 117°
2026-05-04 06:37 63.75707 -8.92448 40983 ft 541 kts 118°
2026-05-04 06:37 63.72209 -8.77397 40979 ft 541 kts 118°
2026-05-04 06:38 63.68698 -8.62399 40978 ft 541 kts 118°
2026-05-04 06:40 63.54488 -8.02723 40974 ft 541 kts 118°
2026-05-04 06:40 63.50922 -7.88005 40972 ft 541 kts 118°
2026-05-04 06:41 63.47314 -7.73207 40973 ft 540 kts 119°
2026-05-04 06:41 63.43689 -7.58441 40970 ft 540 kts 119°
2026-05-04 06:42 63.40056 -7.43744 40970 ft 540 kts 119°
2026-05-04 06:44 63.25420 -6.85501 40971 ft 539 kts 120°
2026-05-04 06:44 63.21721 -6.71021 40967 ft 539 kts 120°
2026-05-04 06:45 63.18013 -6.56598 40966 ft 538 kts 120°
2026-05-04 06:45 63.14292 -6.42222 40963 ft 538 kts 120°
2026-05-04 06:46 63.10578 -6.27963 40964 ft 538 kts 120°
2026-05-04 06:46 63.06825 -6.13646 40964 ft 538 kts 121°
2026-05-04 06:48 62.91730 -5.56973 40951 ft 536 kts 121°
2026-05-04 06:50 62.76428 -5.00956 40955 ft 535 kts 122°
2026-05-04 06:51 62.72572 -4.87056 40953 ft 535 kts 122°
2026-05-04 06:51 62.68706 -4.73207 40955 ft 535 kts 122°
2026-05-04 06:52 62.64824 -4.59384 40953 ft 535 kts 123°
2026-05-04 06:52 62.60934 -4.45616 40948 ft 535 kts 123°
2026-05-04 06:53 62.57027 -4.31875 40944 ft 535 kts 123°
2026-05-04 06:53 62.53133 -4.18260 40947 ft 535 kts 123°
2026-05-04 06:54 62.49201 -4.04598 40944 ft 535 kts 123°
2026-05-04 06:54 62.45255 -3.90968 40945 ft 535 kts 123°
2026-05-04 06:55 62.41293 -3.77360 40942 ft 535 kts 124°
2026-05-04 06:55 62.37323 -3.63811 40938 ft 535 kts 124°
2026-05-04 06:57 62.21978 -3.12182 40935 ft 535 kts 124°
2026-05-04 06:58 62.17941 -2.98790 40933 ft 535 kts 124°
2026-05-04 06:58 62.13976 -2.85716 40934 ft 535 kts 124°
2026-05-04 06:59 62.09913 -2.72392 40932 ft 535 kts 125°
2026-05-04 06:59 62.05840 -2.59115 40932 ft 535 kts 125°
2026-05-04 07:01 61.89405 -2.06311 40922 ft 535 kts 126°
2026-05-04 07:02 61.85268 -1.93208 40922 ft 535 kts 126°
2026-05-04 07:02 61.81119 -1.80141 40924 ft 535 kts 126°
2026-05-04 07:03 61.76978 -1.67175 40922 ft 535 kts 126°
2026-05-04 07:03 61.72806 -1.54185 40920 ft 534 kts 126°
2026-05-04 07:04 61.68623 -1.41234 40913 ft 534 kts 126°
2026-05-04 07:04 61.64425 -1.28309 40920 ft 534 kts 127°
2026-05-04 07:05 61.60223 -1.15442 40917 ft 534 kts 127°
2026-05-04 07:05 61.56008 -1.02609 40916 ft 534 kts 127°
2026-05-04 07:06 61.49663 -0.83426 40910 ft 534 kts 127°
2026-05-04 07:07 61.45418 -0.70680 40920 ft 534 kts 127°
2026-05-04 07:09 61.28330 -0.20072 40910 ft 535 kts 128°
2026-05-04 07:09 61.24017 -0.07472 40909 ft 535 kts 128°
2026-05-04 07:10 61.19669 0.05096 40911 ft 535 kts 129°
2026-05-04 07:12 61.01338 0.53565 40911 ft 535 kts 131°
2026-05-04 07:12 60.96741 0.65649 40912 ft 535 kts 131°
2026-05-04 07:13 60.92169 0.77604 40912 ft 536 kts 131°
2026-05-04 07:13 60.87549 0.89616 40914 ft 536 kts 131°
2026-05-04 07:14 60.75954 1.19484 40910 ft 535 kts 131°
2026-05-04 07:15 60.71294 1.31381 40914 ft 535 kts 131°
2026-05-04 07:15 60.66631 1.43224 40913 ft 535 kts 131°
2026-05-04 07:16 60.62062 1.54768 40910 ft 535 kts 131°
2026-05-04 07:16 60.57379 1.66543 40907 ft 535 kts 132°
2026-05-04 07:17 60.52682 1.78292 40906 ft 535 kts 132°
2026-05-04 07:17 60.47977 1.90002 40904 ft 535 kts 132°
2026-05-04 07:18 60.43274 2.01647 40902 ft 534 kts 132°
2026-05-04 07:18 60.38581 2.13207 40895 ft 534 kts 132°
2026-05-04 07:19 60.33855 2.24793 40890 ft 534 kts 132°
2026-05-04 07:19 60.29123 2.36335 40883 ft 534 kts 132°
2026-05-04 07:20 60.24382 2.47840 40880 ft 533 kts 133°
2026-05-04 07:20 60.19625 2.59328 40881 ft 533 kts 133°
2026-05-04 07:22 60.00621 3.04653 40899 ft 531 kts 133°
2026-05-04 07:23 59.95839 3.15919 40897 ft 531 kts 133°
2026-05-04 07:23 59.91058 3.27126 40896 ft 530 kts 133°
2026-05-04 07:24 59.86263 3.38315 40914 ft 530 kts 133°
2026-05-04 07:24 59.81498 3.49379 40907 ft 530 kts 133°
2026-05-04 07:26 59.62256 3.93523 40897 ft 527 kts 134°
2026-05-04 07:27 59.57443 4.04432 40898 ft 526 kts 134°
2026-05-04 07:27 59.52630 4.15291 40893 ft 526 kts 134°
2026-05-04 07:28 59.47814 4.26106 40893 ft 525 kts 134°
2026-05-04 07:28 59.43024 4.36811 40893 ft 524 kts 134°
2026-05-04 07:29 59.38200 4.47542 40894 ft 524 kts 134°
2026-05-04 07:29 59.33372 4.58232 40882 ft 524 kts 134°
2026-05-04 07:30 59.28538 4.68886 40886 ft 524 kts 135°
2026-05-04 07:30 59.23693 4.79516 40885 ft 524 kts 135°
2026-05-04 07:31 59.18930 4.89919 40886 ft 524 kts 135°
2026-05-04 07:33 58.99477 5.31915 40888 ft 523 kts 135°
2026-05-04 07:33 58.94581 5.42364 40886 ft 522 kts 135°
2026-05-04 07:34 58.89687 5.52763 40884 ft 522 kts 135°
2026-05-04 07:34 58.84791 5.63118 40880 ft 522 kts 135°
2026-05-04 07:35 58.79886 5.73446 40892 ft 521 kts 135°
2026-05-04 07:35 58.74971 5.83749 40890 ft 521 kts 135°
2026-05-04 07:36 58.70059 5.93998 40894 ft 521 kts 136°
2026-05-04 07:38 58.50389 6.34591 40889 ft 519 kts 136°
2026-05-04 07:38 58.45458 6.44656 40889 ft 518 kts 136°
2026-05-04 07:39 58.40529 6.54676 40886 ft 518 kts 136°
2026-05-04 07:39 58.35640 6.64746 40887 ft 517 kts 135°
2026-05-04 07:40 58.30768 6.74829 40878 ft 517 kts 135°
2026-05-04 07:40 58.25895 6.84852 40877 ft 516 kts 136°
2026-05-04 07:41 58.21007 6.94839 40872 ft 516 kts 136°
2026-05-04 07:41 58.16113 7.04785 40869 ft 516 kts 136°
2026-05-04 07:42 58.11212 7.14703 40866 ft 516 kts 136°
2026-05-04 07:42 58.06335 7.24532 40868 ft 515 kts 136°
2026-05-04 07:43 58.01421 7.34392 40864 ft 515 kts 136°
2026-05-04 07:43 57.96512 7.44202 40861 ft 514 kts 136°
2026-05-04 07:44 57.91595 7.53986 40861 ft 514 kts 136°
2026-05-04 07:44 57.86676 7.63730 40855 ft 513 kts 136°
2026-05-04 07:45 57.81751 7.73444 40854 ft 513 kts 136°
2026-05-04 07:45 57.76857 7.83060 40853 ft 513 kts 136°
2026-05-04 07:46 57.71924 7.92708 40852 ft 512 kts 137°
2026-05-04 07:46 57.66995 8.02311 40850 ft 512 kts 137°
2026-05-04 07:47 57.62057 8.11891 40850 ft 512 kts 137°
2026-05-04 07:49 57.43105 8.48287 40844 ft 510 kts 137°
2026-05-04 07:49 57.38155 8.57697 40846 ft 510 kts 137°
2026-05-04 07:50 57.33197 8.67085 40849 ft 509 kts 137°
2026-05-04 07:50 57.28240 8.76433 40848 ft 509 kts 137°
2026-05-04 07:51 57.23320 8.85851 40860 ft 509 kts 134°
2026-05-04 07:51 57.18523 8.95449 40864 ft 509 kts 137°
2026-05-04 07:52 57.13514 9.04544 40853 ft 507 kts 140°
2026-05-04 07:52 57.08430 9.13556 40854 ft 507 kts 139°
2026-05-04 07:54 56.88457 9.50099 40258 ft 503 kts 138°
2026-05-04 07:55 56.85974 9.54623 39562 ft 505 kts 139°
2026-05-04 07:55 56.83478 9.59156 38858 ft 508 kts 139°
2026-05-04 07:55 56.80967 9.63707 38103 ft 510 kts 139°
2026-05-04 07:55 56.78448 9.68262 37264 ft 511 kts 139°
2026-05-04 07:56 56.75911 9.72841 36466 ft 511 kts 139°
2026-05-04 07:56 56.73396 9.77376 36005 ft 506 kts 139°
2026-05-04 07:56 56.70896 9.81876 35869 ft 506 kts 140°
2026-05-04 07:56 56.68386 9.86381 35865 ft 506 kts 140°
2026-05-04 07:57 56.63404 9.95295 35868 ft 505 kts 140°
2026-05-04 07:57 56.58405 10.04207 35575 ft 500 kts 140°
2026-05-04 07:58 56.55925 10.08621 34644 ft 495 kts 140°
2026-05-04 07:58 56.53478 10.12969 33071 ft 493 kts 140°
2026-05-04 07:58 56.51024 10.17312 31197 ft 495 kts 140°
2026-05-04 07:58 56.48547 10.21684 29165 ft 497 kts 140°
2026-05-04 07:59 56.46072 10.26042 27098 ft 497 kts 140°
2026-05-04 07:59 56.43624 10.30352 25799 ft 485 kts 140°
2026-05-04 07:59 56.41204 10.34608 25178 ft 487 kts 140°
2026-05-04 07:59 56.38788 10.38845 24919 ft 480 kts 140°
2026-05-04 08:00 56.36404 10.43022 24842 ft 475 kts 140°
2026-05-04 08:00 56.34053 10.47136 24249 ft 470 kts 140°
2026-05-04 08:00 56.31694 10.51248 23315 ft 473 kts 140°
2026-05-04 08:02 56.15641 10.79062 18875 ft 438 kts 141°
2026-05-04 08:02 56.13439 10.82844 18628 ft 440 kts 141°
2026-05-04 08:02 56.11226 10.86634 18380 ft 439 kts 141°
2026-05-04 08:03 56.09019 10.90413 18152 ft 438 kts 141°
2026-05-04 08:03 56.06818 10.94175 17894 ft 437 kts 141°
2026-05-04 08:03 56.04621 10.97926 17612 ft 435 kts 141°
2026-05-04 08:03 56.02465 11.01604 17340 ft 433 kts 141°
2026-05-04 08:04 56.00717 11.04580 17129 ft 432 kts 141°
2026-05-04 08:04 55.98781 11.07874 16879 ft 431 kts 141°
2026-05-04 08:04 55.96657 11.11653 16783 ft 433 kts 136°
2026-05-04 08:04 55.94900 11.16051 16777 ft 439 kts 122°
2026-05-04 08:05 55.93827 11.21166 16666 ft 444 kts 104°
2026-05-04 08:05 55.93389 11.26627 16403 ft 445 kts 97°
2026-05-04 08:05 55.93097 11.32116 16140 ft 444 kts 97°
2026-05-04 08:05 55.92812 11.37574 15781 ft 441 kts 97°
2026-05-04 08:06 55.92521 11.42991 15154 ft 436 kts 97°
2026-05-04 08:06 55.92226 11.48360 14482 ft 433 kts 97°
2026-05-04 08:06 55.91929 11.53674 13805 ft 430 kts 97°
2026-05-04 08:06 55.91629 11.58964 13068 ft 427 kts 97°
2026-05-04 08:08 55.89640 11.93061 10555 ft 345 kts 97°
2026-05-04 08:08 55.89393 11.97175 10427 ft 333 kts 97°
2026-05-04 08:10 55.87499 12.27942 7955 ft 307 kts 96°
2026-05-04 08:11 55.87262 12.31705 7621 ft 305 kts 96°
2026-05-04 08:11 55.86791 12.39146 6956 ft 300 kts 96°
2026-05-04 08:11 55.86556 12.42829 6624 ft 298 kts 96°
2026-05-04 08:12 55.86322 12.46478 6305 ft 296 kts 96°
2026-05-04 08:12 55.86088 12.50105 5967 ft 293 kts 96°
2026-05-04 08:12 55.85855 12.53702 5632 ft 292 kts 96°
2026-05-04 08:12 55.85622 12.57280 5328 ft 291 kts 96°
2026-05-04 08:13 55.85393 12.60771 5142 ft 283 kts 96°
2026-05-04 08:13 55.85168 12.64189 5008 ft 273 kts 96°
2026-05-04 08:13 55.84952 12.67481 4855 ft 264 kts 96°
2026-05-04 08:13 55.84739 12.70697 4604 ft 260 kts 95°
2026-05-04 08:14 55.84527 12.73890 4324 ft 258 kts 95°
2026-05-04 08:14 55.84356 12.77054 4016 ft 256 kts 93°
2026-05-04 08:14 55.83966 12.80120 3687 ft 254 kts 116°
2026-05-04 08:16 55.74591 12.85613 2999 ft 200 kts 229°
2026-05-04 08:16 55.73644 12.83984 2973 ft 179 kts 228°
2026-05-04 08:16 55.72753 12.82613 2776 ft 162 kts 225°
2026-05-04 08:17 55.71932 12.81364 2546 ft 149 kts 227°
2026-05-04 08:17 55.71180 12.80186 2339 ft 139 kts 227°
2026-05-04 08:17 55.70473 12.79084 2148 ft 132 kts 227°
2026-05-04 08:17 55.69785 12.78010 1955 ft 132 kts 228°
2026-05-04 08:19 55.65009 12.70574 643 ft 130 kts 228°
2026-05-04 08:19 55.64330 12.69530 476 ft 128 kts 226°
2026-05-04 08:20 55.63645 12.68457 338 ft 133 kts 226°
2026-05-04 08:20 55.62941 12.67379 193 ft 136 kts 225°
2026-05-04 08:20 55.62245 12.66306 48 ft 129 kts 226°
2026-05-04 08:20 55.61614 12.65308 22 ft 106 kts 220°
2026-05-04 08:21 55.61149 12.64607 28 ft 69 kts 222°
2026-05-04 08:21 55.60885 12.64194 28 ft 32 kts 220°
2026-05-04 08:21 55.60778 12.64032 31 ft 22 kts 221°
2026-05-04 08:21 55.60684 12.63824 29 ft 12 kts 255°
2026-05-04 08:22 55.60704 12.63757 28 ft 16 kts 308°
2026-05-04 08:22 55.60779 12.63615 28 ft 16 kts 331°
2026-05-04 08:24 55.61742 12.64648 27 ft 31 kts 33°
2026-05-04 08:24 55.61929 12.64865 26 ft 33 kts 33°
2026-05-04 08:24 55.62103 12.65058 28 ft 29 kts 32°
2026-05-04 08:24 55.62269 12.65194 28 ft 23 kts
2026-05-04 08:25 55.62375 12.65193 27 ft 0 kts 357°
2026-05-04 08:25 55.62420 12.65190 27 ft 15 kts 358°
2026-05-04 08:25 55.62533 12.65182 27 ft 17 kts 358°
2026-05-04 08:25 55.62560 12.65160 28 ft 9 kts 306°
2026-05-04 08:26 55.62569 12.65099 31 ft 1 kts 279°
2026-05-04 08:27 55.62572 12.65037 27 ft 0 kts 274°